Time,TemperatureF,DewpointF,PressureIn,WindDirection,WindDirectionDegrees,WindSpeedMPH,WindSpeedGustMPH,Humidity,HourlyPrecipIn,Conditions,Clouds,dailyrainin,SoftwareType,DateUTC
2013-01-12 00:03:00,44.0,43.0,29.67,South,171,1.0,13.0,97,0.00,,,0.46,,2013-01-12 05:03:00,
2013-01-12 00:12:00,44.0,43.0,29.67,South,171,1.0,13.0,97,0.00,,,0.46,,2013-01-12 05:12:00,
2013-01-12 00:22:00,45.0,44.0,29.67,SSE,154,4.0,10.0,97,0.00,,,0.46,,2013-01-12 05:22:00,
2013-01-12 00:32:00,45.0,44.0,29.66,SSE,155,4.0,10.0,97,0.00,,,0.46,,2013-01-12 05:32:00,
2013-01-12 00:42:00,45.0,44.0,29.66,SSE,155,4.0,10.0,97,0.00,,,0.46,,2013-01-12 05:42:00,
2013-01-12 00:53:00,45.0,44.0,29.65,SSE,149,4.0,11.0,97,0.00,,,0.46,,2013-01-12 05:53:00,
2013-01-12 01:02:00,45.0,44.0,29.64,SSE,150,7.0,13.0,97,0.00,,,0.46,,2013-01-12 06:02:00,
2013-01-12 01:12:00,45.0,44.0,29.64,SSE,150,7.0,13.0,97,0.00,,,0.46,,2013-01-12 06:12:00,
2013-01-12 01:22:00,45.0,44.0,29.63,SSE,148,7.0,13.0,97,0.00,,,0.46,,2013-01-12 06:22:00,
2013-01-12 01:33:00,45.0,44.0,29.63,SSE,151,6.0,11.0,97,0.00,,,0.46,,2013-01-12 06:33:00,
2013-01-12 01:42:00,45.0,44.0,29.63,SSE,151,6.0,11.0,97,0.00,,,0.46,,2013-01-12 06:42:00,
2013-01-12 01:53:00,45.0,44.0,29.64,SSE,148,10.0,13.0,96,0.00,,,0.46,,2013-01-12 06:53:00,
2013-01-12 02:02:00,45.0,44.0,29.63,SE,140,6.0,12.0,96,0.00,,,0.46,,2013-01-12 07:02:00,
2013-01-12 02:12:00,46.0,45.0,29.62,SSE,153,8.0,13.0,96,0.00,,,0.43,,2013-01-12 07:12:00,
2013-01-12 02:22:00,46.0,45.0,29.62,SSE,153,8.0,13.0,96,0.00,,,0.43,,2013-01-12 07:22:00,
2013-01-12 02:32:00,46.0,45.0,29.62,SSE,149,7.0,14.0,96,0.00,,,0.43,,2013-01-12 07:32:00,
2013-01-12 02:42:00,46.0,45.0,29.62,SSE,149,7.0,14.0,96,0.00,,,0.43,,2013-01-12 07:42:00,
2013-01-12 02:53:00,46.0,45.0,29.62,SSE,150,7.0,16.0,95,0.00,,,0.43,,2013-01-12 07:53:00,
2013-01-12 03:02:00,47.0,46.0,29.63,SSE,157,5.0,14.0,95,0.00,,,0.43,,2013-01-12 08:02:00,
2013-01-12 03:12:00,47.0,46.0,29.63,SSE,157,5.0,14.0,95,0.00,,,0.43,,2013-01-12 08:12:00,
2013-01-12 03:22:00,47.0,45.0,29.61,South,173,7.0,17.0,94,0.00,,,0.26,,2013-01-12 08:22:00,
2013-01-12 03:32:00,48.0,46.0,29.62,South,172,5.0,14.0,94,0.00,,,0.26,,2013-01-12 08:32:00,
2013-01-12 03:42:00,48.0,46.0,29.62,South,172,5.0,14.0,94,0.00,,,0.26,,2013-01-12 08:42:00,
2013-01-12 03:53:00,48.0,46.0,29.62,South,187,7.0,17.0,93,0.00,,,0.26,,2013-01-12 08:53:00,
2013-01-12 04:02:00,48.0,46.0,29.61,South,171,8.0,16.0,93,0.00,,,0.26,,2013-01-12 09:02:00,
2013-01-12 04:12:00,48.0,46.0,29.61,South,171,8.0,16.0,93,0.00,,,0.26,,2013-01-12 09:12:00,
2013-01-12 04:22:00,48.0,46.0,29.61,South,188,8.0,16.0,93,0.00,,,0.14,,2013-01-12 09:22:00,
2013-01-12 04:32:00,48.0,46.0,29.60,SSW,199,8.0,15.0,92,0.00,,,0.14,,2013-01-12 09:32:00,
2013-01-12 04:42:00,48.0,46.0,29.60,SSW,199,8.0,15.0,92,0.00,,,0.14,,2013-01-12 09:42:00,
2013-01-12 04:53:00,48.0,46.0,29.60,South,181,10.0,17.0,92,0.00,,,0.14,,2013-01-12 09:53:00,
2013-01-12 05:02:00,48.0,46.0,29.60,SE,144,10.0,20.0,92,0.00,,,0.14,,2013-01-12 10:02:00,
2013-01-12 05:12:00,48.0,46.0,29.60,SE,144,10.0,20.0,92,0.00,,,0.14,,2013-01-12 10:12:00,
2013-01-12 05:22:00,48.0,45.0,29.59,SSE,163,6.0,18.0,91,0.00,,,0.08,,2013-01-12 10:22:00,
2013-01-12 05:32:00,48.0,45.0,29.58,South,175,7.0,17.0,91,0.00,,,0.08,,2013-01-12 10:32:00,
2013-01-12 05:42:00,48.0,45.0,29.58,South,175,7.0,17.0,91,0.00,,,0.08,,2013-01-12 10:42:00,
2013-01-12 05:52:00,48.0,45.0,29.58,South,170,8.0,18.0,91,0.00,,,0.08,,2013-01-12 10:52:00,
2013-01-12 06:02:00,48.0,46.0,29.58,South,190,7.0,13.0,92,0.00,,,0.08,,2013-01-12 11:02:00,
2013-01-12 06:12:00,48.0,46.0,29.57,South,177,9.0,20.0,92,0.00,,,0.05,,2013-01-12 11:12:00,
2013-01-12 06:22:00,48.0,46.0,29.57,South,177,9.0,20.0,92,0.00,,,0.05,,2013-01-12 11:22:00,
2013-01-12 06:32:00,48.0,46.0,29.57,South,186,9.0,17.0,92,0.00,,,0.05,,2013-01-12 11:32:00,
2013-01-12 06:42:00,48.0,46.0,29.57,South,186,9.0,17.0,92,0.00,,,0.05,,2013-01-12 11:42:00,
2013-01-12 06:53:00,48.0,45.0,29.58,South,172,10.0,20.0,91,0.00,,,0.05,,2013-01-12 11:53:00,
2013-01-12 07:03:00,48.0,45.0,29.58,South,184,7.0,16.0,91,0.00,,,0.05,,2013-01-12 12:03:00,
2013-01-12 07:12:00,48.0,45.0,29.58,South,184,7.0,16.0,91,0.00,,,0.05,,2013-01-12 12:12:00,
2013-01-12 07:22:00,48.0,45.0,29.58,SSW,213,10.0,19.0,91,0.00,,,0.04,,2013-01-12 12:22:00,
2013-01-12 07:33:00,48.0,45.0,29.58,SSE,163,6.0,16.0,91,0.00,,,0.04,,2013-01-12 12:33:00,
2013-01-12 07:42:00,48.0,45.0,29.58,SSE,163,6.0,16.0,91,0.00,,,0.04,,2013-01-12 12:42:00,
2013-01-12 07:53:00,48.0,45.0,29.57,South,174,11.0,16.0,91,0.00,,,0.04,,2013-01-12 12:53:00,
2013-01-12 08:02:00,48.0,45.0,29.58,South,187,10.0,23.0,90,0.00,,,0.04,,2013-01-12 13:02:00,
2013-01-12 08:12:00,48.0,45.0,29.58,South,187,10.0,23.0,90,0.00,,,0.04,,2013-01-12 13:12:00,
2013-01-12 08:23:00,48.0,45.0,29.58,South,184,4.0,19.0,90,0.00,,,0.03,,2013-01-12 13:23:00,
2013-01-12 08:33:00,48.0,45.0,29.58,SSE,155,7.0,19.0,90,0.00,,,0.03,,2013-01-12 13:33:00,
2013-01-12 08:42:00,48.0,45.0,29.58,SSE,155,7.0,19.0,90,0.00,,,0.03,,2013-01-12 13:42:00,
2013-01-12 08:53:00,48.0,45.0,29.59,South,186,6.0,18.0,90,0.00,,,0.03,,2013-01-12 13:53:00,
2013-01-12 09:02:00,48.0,45.0,29.60,South,185,12.0,19.0,90,0.00,,,0.03,,2013-01-12 14:02:00,
2013-01-12 09:12:00,48.0,45.0,29.60,South,185,12.0,19.0,90,0.00,,,0.03,,2013-01-12 14:12:00,
2013-01-12 09:22:00,49.0,46.0,29.60,SSW,208,10.0,17.0,89,0.00,,,0.03,,2013-01-12 14:22:00,
2013-01-12 09:33:00,49.0,46.0,29.60,SSW,211,11.0,17.0,89,0.00,,,0.03,,2013-01-12 14:33:00,
2013-01-12 09:43:00,49.0,46.0,29.60,SSW,211,11.0,17.0,89,0.00,,,0.03,,2013-01-12 14:43:00,
2013-01-12 09:53:00,50.0,46.0,29.61,South,190,8.0,21.0,87,0.00,,,0.03,,2013-01-12 14:53:00,
2013-01-12 10:03:00,50.0,46.0,29.61,South,182,11.0,23.0,85,0.00,,,0.03,,2013-01-12 15:03:00,
2013-01-12 10:12:00,51.0,46.0,29.61,SSW,200,10.0,24.0,84,0.00,,,0.03,,2013-01-12 15:12:00,
2013-01-12 10:22:00,51.0,46.0,29.61,SSW,200,10.0,24.0,84,0.00,,,0.03,,2013-01-12 15:22:00,
2013-01-12 10:33:00,51.0,46.0,29.61,SW,224,13.0,26.0,83,0.00,,,0.03,,2013-01-12 15:33:00,
2013-01-12 10:43:00,51.0,46.0,29.61,SW,224,13.0,26.0,83,0.00,,,0.03,,2013-01-12 15:43:00,
2013-01-12 10:53:00,52.0,47.0,29.62,SSW,208,17.0,26.0,82,0.00,,,0.03,,2013-01-12 15:53:00,
2013-01-12 11:03:00,52.0,46.0,29.62,SSW,197,12.0,26.0,81,0.00,,,0.03,,2013-01-12 16:03:00,
2013-01-12 11:12:00,52.0,46.0,29.62,SSW,197,12.0,26.0,81,0.00,,,0.03,,2013-01-12 16:12:00,
2013-01-12 11:23:00,53.0,47.0,29.63,South,186,16.0,27.0,79,0.00,,,0.03,,2013-01-12 16:23:00,
2013-01-12 11:33:00,52.0,45.0,29.63,SSW,208,20.0,26.0,76,0.00,,,0.03,,2013-01-12 16:33:00,
2013-01-12 11:42:00,52.0,44.0,29.63,SW,225,17.0,40.0,74,0.00,,,0.03,,2013-01-12 16:42:00,
2013-01-12 11:53:00,52.0,44.0,29.63,SW,225,17.0,40.0,74,0.00,,,0.03,,2013-01-12 16:53:00,
2013-01-12 12:02:00,53.0,43.0,29.63,SW,235,21.0,34.0,70,0.00,,,0.03,,2013-01-12 17:02:00,
2013-01-12 12:12:00,53.0,43.0,29.63,SW,235,21.0,34.0,70,0.00,,,0.03,,2013-01-12 17:12:00,
2013-01-12 12:23:00,53.0,43.0,29.63,West,271,22.0,33.0,69,0.00,,,0.02,,2013-01-12 17:23:00,
2013-01-12 12:33:00,53.0,42.0,29.63,SW,236,20.0,30.0,65,0.00,,,0.02,,2013-01-12 17:33:00,
2013-01-12 12:43:00,53.0,42.0,29.63,SW,236,20.0,30.0,65,0.00,,,0.02,,2013-01-12 17:43:00,
2013-01-12 12:53:00,53.0,41.0,29.63,SW,227,16.0,38.0,64,0.00,,,0.02,,2013-01-12 17:53:00,
2013-01-12 13:03:00,52.0,40.0,29.63,SW,228,16.0,33.0,63,0.00,,,0.02,,2013-01-12 18:03:00,
2013-01-12 13:12:00,52.0,40.0,29.63,SW,228,16.0,33.0,63,0.00,,,0.02,,2013-01-12 18:12:00,
2013-01-12 13:23:00,52.0,39.0,29.63,SW,236,16.0,32.0,62,0.00,,,0.02,,2013-01-12 18:23:00,
2013-01-12 13:33:00,51.0,38.0,29.65,WSW,238,20.0,33.0,62,0.00,,,0.02,,2013-01-12 18:33:00,
2013-01-12 13:42:00,51.0,38.0,29.65,WSW,238,20.0,33.0,62,0.00,,,0.02,,2013-01-12 18:42:00,
2013-01-12 13:53:00,51.0,39.0,29.65,WSW,244,15.0,28.0,63,0.00,,,0.02,,2013-01-12 18:53:00,
2013-01-12 14:03:00,48.0,36.0,29.68,WSW,245,19.0,27.0,63,0.00,,,0.02,,2013-01-12 19:03:00,
2013-01-12 14:12:00,48.0,36.0,29.68,WSW,245,19.0,27.0,63,0.00,,,0.02,,2013-01-12 19:12:00,
2013-01-12 14:23:00,48.0,36.0,29.69,WSW,244,16.0,29.0,62,0.00,,,0.02,,2013-01-12 19:23:00,
2013-01-12 14:33:00,47.0,35.0,29.71,SW,235,18.0,33.0,63,0.00,,,0.02,,2013-01-12 19:33:00,
2013-01-12 14:43:00,47.0,35.0,29.71,SW,235,18.0,33.0,63,0.00,,,0.02,,2013-01-12 19:43:00,
2013-01-12 14:53:00,46.0,34.0,29.72,West,266,18.0,30.0,63,0.00,,,0.02,,2013-01-12 19:53:00,
2013-01-12 15:03:00,45.0,34.0,29.74,WSW,243,18.0,32.0,65,0.00,,,0.02,,2013-01-12 20:03:00,
2013-01-12 15:12:00,44.0,34.0,29.74,West,259,10.0,21.0,68,0.00,,,0.01,,2013-01-12 20:12:00,
2013-01-12 15:22:00,44.0,34.0,29.74,West,259,10.0,21.0,68,0.00,,,0.01,,2013-01-12 20:22:00,
2013-01-12 15:33:00,43.0,34.0,29.75,WSW,246,11.0,21.0,69,0.00,,,0.01,,2013-01-12 20:33:00,
2013-01-12 15:42:00,43.0,34.0,29.75,WSW,246,11.0,21.0,69,0.00,,,0.01,,2013-01-12 20:42:00,
2013-01-12 15:53:00,42.0,33.0,29.77,West,265,13.0,20.0,71,0.00,,,0.01,,2013-01-12 20:53:00,
2013-01-12 16:03:00,42.0,34.0,29.78,SW,215,13.0,19.0,73,0.00,,,0.01,,2013-01-12 21:03:00,
2013-01-12 16:12:00,42.0,34.0,29.78,WSW,250,13.0,21.0,73,0.00,,,0.01,,2013-01-12 21:12:00,
2013-01-12 16:22:00,42.0,34.0,29.78,WSW,250,13.0,21.0,73,0.00,,,0.01,,2013-01-12 21:22:00,
2013-01-12 16:33:00,41.0,33.0,29.79,WSW,242,13.0,21.0,73,0.00,,,0.01,,2013-01-12 21:33:00,
2013-01-12 16:43:00,41.0,33.0,29.79,WSW,242,13.0,21.0,73,0.00,,,0.01,,2013-01-12 21:43:00,
2013-01-12 16:53:00,41.0,33.0,29.80,WSW,246,13.0,22.0,73,0.00,,,0.01,,2013-01-12 21:53:00,
2013-01-12 17:03:00,41.0,33.0,29.80,WSW,245,13.0,19.0,74,0.00,,,0.01,,2013-01-12 22:03:00,
2013-01-12 17:12:00,41.0,33.0,29.80,WSW,245,13.0,19.0,74,0.00,,,0.01,,2013-01-12 22:12:00,
2013-01-12 17:23:00,40.0,32.0,29.82,SW,227,6.0,19.0,74,0.00,,,0.01,,2013-01-12 22:23:00,
2013-01-12 17:33:00,40.0,33.0,29.80,WSW,251,11.0,18.0,75,0.00,,,0.01,,2013-01-12 22:33:00,
2013-01-12 17:43:00,40.0,33.0,29.80,WSW,251,11.0,18.0,75,0.00,,,0.01,,2013-01-12 22:43:00,
2013-01-12 17:53:00,40.0,33.0,29.82,WSW,246,8.0,18.0,77,0.00,,,0.01,,2013-01-12 22:53:00,
2013-01-12 18:03:00,39.0,33.0,29.83,WSW,253,3.0,15.0,78,0.00,,,0.01,,2013-01-12 23:03:00,
2013-01-12 18:12:00,39.0,33.0,29.83,WSW,255,7.0,16.0,80,0.00,,,0.01,,2013-01-12 23:12:00,
2013-01-12 18:22:00,39.0,33.0,29.83,WSW,255,7.0,16.0,80,0.00,,,0.01,,2013-01-12 23:22:00,
2013-01-12 18:33:00,39.0,33.0,29.83,SW,236,12.0,14.0,80,0.00,,,0.01,,2013-01-12 23:33:00,
2013-01-12 18:43:00,39.0,33.0,29.83,SW,236,12.0,14.0,80,0.00,,,0.01,,2013-01-12 23:43:00,
2013-01-12 18:53:00,39.0,34.0,29.84,WSW,240,1.0,12.0,81,0.00,,,0.01,,2013-01-12 23:53:00,
2013-01-12 19:03:00,39.0,34.0,29.83,WSW,252,11.0,14.0,81,0.00,,,0.01,,2013-01-13 00:03:00,
2013-01-12 19:12:00,39.0,34.0,29.83,WSW,252,11.0,14.0,81,0.00,,,0.01,,2013-01-13 00:12:00,
2013-01-12 19:23:00,39.0,34.0,29.85,WSW,246,10.0,16.0,81,0.00,,,0.01,,2013-01-13 00:23:00,
2013-01-12 19:33:00,39.0,34.0,29.85,SW,234,6.0,13.0,81,0.00,,,0.01,,2013-01-13 00:33:00,
2013-01-12 19:43:00,39.0,34.0,29.85,SW,234,6.0,13.0,81,0.00,,,0.01,,2013-01-13 00:43:00,
2013-01-12 19:53:00,39.0,34.0,29.86,WSW,238,9.0,14.0,81,0.00,,,0.01,,2013-01-13 00:53:00,
2013-01-12 20:03:00,38.0,32.0,29.87,SW,236,10.0,16.0,80,0.00,,,0.01,,2013-01-13 01:03:00,
2013-01-12 20:12:00,38.0,32.0,29.87,SW,236,10.0,16.0,80,0.00,,,0.01,,2013-01-13 01:12:00,
2013-01-12 20:23:00,38.0,32.0,29.86,West,274,12.0,19.0,79,0.00,,,0.01,,2013-01-13 01:23:00,
2013-01-12 20:33:00,37.0,31.0,29.85,SW,227,12.0,16.0,79,0.00,,,0.01,,2013-01-13 01:33:00,
2013-01-12 20:43:00,37.0,31.0,29.85,SW,227,12.0,16.0,79,0.00,,,0.01,,2013-01-13 01:43:00,
2013-01-12 20:53:00,37.0,31.0,29.85,WSW,247,7.0,14.0,79,0.00,,,0.01,,2013-01-13 01:53:00,
2013-01-12 21:02:00,37.0,31.0,29.83,WSW,250,11.0,17.0,80,0.00,,,0.01,,2013-01-13 02:02:00,
2013-01-12 21:12:00,37.0,31.0,29.83,WSW,250,11.0,17.0,80,0.00,,,0.01,,2013-01-13 02:12:00,
2013-01-12 21:22:00,37.0,31.0,29.84,WSW,242,9.0,16.0,80,0.00,,,0.01,,2013-01-13 02:22:00,
2013-01-12 21:33:00,36.0,30.0,29.85,West,265,6.0,13.0,80,0.00,,,0.01,,2013-01-13 02:33:00,
2013-01-12 21:43:00,36.0,30.0,29.85,West,265,6.0,13.0,80,0.00,,,0.01,,2013-01-13 02:43:00,
2013-01-12 21:53:00,36.0,30.0,29.83,WSW,242,2.0,11.0,80,0.00,,,0.01,,2013-01-13 02:53:00,
2013-01-12 22:02:00,36.0,30.0,29.85,WSW,250,7.0,11.0,80,0.00,,,0.01,,2013-01-13 03:02:00,
2013-01-12 22:12:00,36.0,30.0,29.85,WSW,250,7.0,11.0,80,0.00,,,0.01,,2013-01-13 03:12:00,
2013-01-12 22:22:00,37.0,31.0,29.86,SW,236,6.0,16.0,79,0.00,,,0.01,,2013-01-13 03:22:00,
2013-01-12 22:33:00,37.0,30.0,29.85,WSW,241,10.0,16.0,77,0.00,,,0.01,,2013-01-13 03:33:00,
2013-01-12 22:43:00,37.0,30.0,29.85,WSW,241,10.0,16.0,77,0.00,,,0.01,,2013-01-13 03:43:00,
2013-01-12 22:53:00,36.0,29.0,29.87,WSW,244,10.0,19.0,77,0.00,,,0.01,,2013-01-13 03:53:00,
2013-01-12 23:02:00,36.0,29.0,29.89,SW,231,12.0,19.0,76,0.00,,,0.01,,2013-01-13 04:02:00,
2013-01-12 23:12:00,36.0,29.0,29.89,SW,231,12.0,19.0,76,0.00,,,0.01,,2013-01-13 04:12:00,
2013-01-12 23:22:00,36.0,29.0,29.90,SW,233,12.0,17.0,76,0.00,,,0.00,,2013-01-13 04:22:00,
2013-01-12 23:33:00,36.0,29.0,29.91,SW,232,6.0,12.0,76,0.00,,,0.00,,2013-01-13 04:33:00,
2013-01-12 23:42:00,36.0,29.0,29.91,SW,232,6.0,12.0,76,0.00,,,0.00,,2013-01-13 04:42:00,
2013-01-12 23:53:00,36.0,29.0,29.90,WSW,257,8.0,14.0,77,0.00,,,0.00,,2013-01-13 04:53:00,